Location: Milton Keynes
(52.0316°N, 0.7531°W)
Time: 23:37:01
(UTC+00:00)

N. Korean satellite - Pass Details

Date: 04 October 2020
Orbit: 452 x 505 km, 97.2° (Epoch: 29 October)

Event Time Altitude Azimuth Distance (km) Brightness Sun altitude
Rises 05:29:35 0° 30° (NNE) 2,570 10.9 -16.1°
Reaches altitude 10° 05:32:42 10° 60° (ENE) 1,668 10.5 -15.6°
Maximum altitude 05:34:23 13° 88° (E) 1,492 10.3 -15.4°
Drops below altitude 10° 05:36:02 10° 116° (ESE) 1,647 10.0 -15.1°
Sets 05:39:03 0° 146° (SE) 2,503 10.5 -14.7°
